FW4387 Weather Reports


time (UTC)temp
C
wind
direction
speed
KPH
gust
KPH
rain 1hr
cm
rain 24hr
cm
rain mn
cm
humidity
%
barometer
mb
20260508154606 15 0.0 0.0 0.00 0.00 0.00 59 1012.5
20260508153043 14 0.0 0.0 0.00 0.00 0.00 60 1012.5
20260508151540 14 0.0 0.0 0.00 0.00 0.00 60 1012.8
20260508150038 13 0.0 0.0 0.00 0.00 0.00 64 1013.1
20260508144534 12 0.0 0.0 0.00 0.00 0.00 65 1013.1
20260508143033 12 0.0 0.0 0.00 0.00 0.00 65 1013.1
20260508141534 12 0.0 0.0 0.00 0.00 0.00 63 1013.2
20260508140032 12 0.0 0.0 0.00 0.00 0.00 62 1013.1
20260508134539 12 0.0 0.0 0.00 0.00 0.00 64 1013.1
20260508133045 12 0.0 0.0 0.00 0.00 0.00 62 1013.1
20260508131531 12 0.0 0.0 0.00 0.00 0.00 64 1013.0
20260508130032 12 0.0 0.0 0.00 0.00 0.00 65 1012.9
20260508124534 11 0.0 0.0 0.00 0.00 0.00 66 1012.9
20260508123042 10 0.0 0.0 0.00 0.00 0.00 67 1012.8
20260508121529 10 0.0 0.0 0.00 0.00 0.00 70 1012.8
20260508120023 10 0.0 0.0 0.00 0.00 0.00 69 1013.0
20260508114522 9 0.0 0.0 0.00 0.00 0.00 74 1012.7
20260508113023 7 0.0 0.0 0.00 0.00 0.00 82 1012.7
20260508111527 6 0.0 0.0 0.00 0.00 0.00 82 1012.6
20260508110025 6 0.0 0.0 0.00 0.00 0.00 82 1012.6
20260508104521 6 0.0 0.0 0.00 0.00 0.00 82 1012.4
20260508103022 6 0.0 0.0 0.00 0.00 0.00 82 1012.3
20260508101520 6 0.0 0.0 0.00 0.00 0.00 82 1012.3
20260508100021 6 0.0 0.0 0.00 0.00 0.00 82 1012.0
20260508094518 6 0.0 0.0 0.00 0.00 0.00 81 1012.1
20260508093019 6 0.0 0.0 0.00 0.00 0.00 81 1012.2
20260508091517 6 0.0 0.0 0.00 0.00 0.00 81 1012.3
20260508090029 6 0.0 0.0 0.00 0.00 0.00 80 1012.4
20260508084515 6 0.0 0.0 0.00 0.00 0.00 80 1012.3
20260508083013 7 0.0 0.0 0.00 0.00 0.00 79 1012.4
20260508081510 7 0.0 0.0 0.00 0.00 0.00 78 1012.4
20260508080009 7 0.0 0.0 0.00 0.00 0.00 77 1012.4
20260508074509 8 0.0 0.0 0.00 0.00 0.00 76 1012.4
20260508073009 8 0.0 0.0 0.00 0.00 0.00 76 1012.5
20260508071509 8 0.0 0.0 0.00 0.00 0.00 75 1012.6
20260508070008 9 0.0 0.0 0.00 0.00 0.00 75 1012.8
20260508064510 9 0.0 0.0 0.00 0.00 0.00 74 1012.9
20260508063010 9 0.0 0.0 0.00 0.00 0.00 72 1013.1
20260508061507 8 0.0 0.0 0.00 0.00 0.00 73 1013.3
20260508060008 8 0.0 0.0 0.00 0.00 0.00 73 1013.1
20260508054507 8 0.0 0.0 0.00 0.00 0.00 74 1013.0
20260508053008 8 0.0 0.0 0.00 0.00 0.00 75 1012.7
20260508051506 8 0.0 0.0 0.00 0.00 0.00 75 1012.8
20260508050005 8 0.0 0.0 0.00 0.00 0.00 76 1012.6
20260508044506 8 0.0 0.0 0.00 0.00 0.00 76 1012.9
20260508043005 8 0.0 0.0 0.00 0.00 0.00 76 1012.9
20260508041505 8 0.0 0.0 0.00 0.00 0.00 75 1012.9
20260508040005 8 0.0 0.0 0.00 0.00 0.00 74 1013.0
20260508034504 8 0.0 0.0 0.00 0.00 0.00 74 1012.8
20260508033004 8 0.0 0.0 0.00 0.00 0.00 74 1012.9
20260508031504 8 0.0 0.0 0.00 0.00 0.00 74 1012.9
20260508030003 7 0.0 0.0 0.00 0.00 0.00 75 1012.9
20260508024503 7 0.0 0.0 0.00 0.00 0.00 73 1012.9
20260508023003 7 0.0 0.0 0.00 0.00 0.00 73 1012.8
20260508021607 8 0.0 0.0 0.00 0.00 0.00 71 1012.8
20260508020117 8 0.0 0.0 0.00 0.00 0.00 70 1012.8
20260508014540 8 0.0 0.0 0.00 0.00 0.00 69 1012.9
20260508013036 8 0.0 0.0 0.00 0.00 0.00 65 1012.9
20260508011534 9 0.0 0.0 0.00 0.00 0.00 62 1012.7
20260508010047 10 0.0 0.0 0.00 0.00 0.00 60 1012.6
20260508004600 10 0.0 0.0 0.00 0.00 0.00 56 1012.6
20260508003055 11 0.0 0.0 0.00 0.00 0.00 55 1012.6
20260508001553 12 0.0 0.0 0.00 0.00 0.00 50 1012.5
20260508000054 12 0.0 0.0 0.00 0.00 0.00 47 1012.2
20260507234557 13 0.0 0.0 0.00 0.00 0.00 46 1012.2
20260507233059 13 0.0 0.0 0.00 0.00 0.00 47 1012.1
20260507231555 13 0.0 0.0 0.00 0.00 0.00 47 1012.2
20260507230108 13 0.0 0.0 0.00 0.00 0.00 44 1012.1
20260507224555 13 0.0 0.0 0.00 0.00 0.00 44 1012.3
20260507223052 13 0.0 0.0 0.00 0.00 0.00 44 1012.4
20260507221552 14 0.0 0.0 0.00 0.00 0.00 43 1012.4
20260507220055 14 0.0 0.0 0.00 0.00 0.00 43 1012.4
20260507214552 15 0.0 0.0 0.00 0.00 0.00 43 1012.1
20260507213051 14 0.0 0.0 0.00 0.00 0.00 44 1012.2
20260507211550 15 0.0 0.0 0.00 0.00 0.00 43 1012.2
20260507210105 15 0.0 0.0 0.00 0.00 0.00 46 1012.0
20260507204550 14 0.0 0.0 0.00 0.00 0.00 43 1012.0
20260507203115 15 0.0 0.0 0.00 0.00 0.00 45 1011.8
20260507201551 15 0.0 0.0 0.00 0.00 0.00 43 1012.1
20260507200047 15 0.0 0.0 0.00 0.00 0.00 43 1012.1
20260507194559 15 0.0 0.0 0.00 0.00 0.00 47 1012.1
20260507193044 16 0.0 0.0 0.00 0.00 0.00 45 1012.1
20260507191546 15 0.0 0.0 0.00 0.00 0.00 47 1012.1
20260507190047 14 0.0 0.0 0.00 0.00 0.00 47 1012.3
20260507184542 14 0.0 0.0 0.00 0.00 0.00 46 1012.4
20260507183040 14 0.0 0.0 0.00 0.00 0.00 48 1012.4
20260507181541 15 0.0 0.0 0.00 0.00 0.00 50 1012.4
20260507180040 15 0.0 0.0 0.00 0.00 0.00 51 1012.5
20260507174541 14 0.0 0.0 0.00 0.00 0.00 53 1012.4
20260507173053 14 0.0 0.0 0.00 0.00 0.00 51 1012.8
20260507171533 13 0.0 0.0 0.00 0.00 0.00 51 1012.8
20260507170036 13 0.0 0.0 0.00 0.00 0.00 54 1013.2
20260507164533 13 0.0 0.0 0.00 0.00 0.00 49 1013.2
20260507163029 13 0.0 0.0 0.00 0.00 0.00 49 1013.5
20260507161534 14 0.0 0.0 0.00 0.00 0.00 47 1013.3
20260507160026 14 0.0 0.0 0.00 0.00 0.00 55 1013.2